Terminal Aerodrome Forecast
Issued by NWS North Platte, NE

Home | Current Version | Previous Version | Text Only | Print | Product List | Glossary Off
Versions: 1 2 3 4 5 6 7 8 9 10 11 12 13 14 15

000
FTUS43 KLBF 171100
TAFVTN
TAF
KVTN 171137Z 1712/1812 VRB04KT P6SM OVC100
     FM171500 13009KT P6SM OVC060
     FM172000 17012G18KT P6SM BKN070
     FM180100 16012KT P6SM SCT250=

USA.gov is the U.S. government's official web portal to all federal, state and local government web resources and services.